Troy, MI (48099)

9:30 AM EDT on May 04, 2015 (GMT -0400)
Big Beaver & Livernois | | Change Station
CLOSE
Current Station
Personal Weather Station
Location: Troy, MI
Elevation: 682 ft
Nearby Weather Stations

Elev 682 ft 42.57 °N, 83.14 °W | Updated 10 minutes ago

Scattered Clouds
Scattered Clouds
66.0 °F
Feels Like 66.0 °F
N
5.8
Wind Variable Wind from ESE

Today
High -- | Low -- °F
--% Chance of Precip.
Yesterday
High -- | Low -- °F
Precip. -- in
6:23 AM 8:35 PM
Full, 100% visible
Pressure 30.04 in
Visibility 10.0 miles
Clouds Scattered Clouds 12000 ft
Dew Point 51 °F
Humidity 59%
Rainfall 0.00 in
Snow Depth Not available.
UV 3 out of 12
Pollen 8.60 out of 12
Air Quality Not available.
Flu Activity Regional
METAR KVLL 041315Z AUTO 20006KT 10SM SCT120 19/10 A3004 RMK AO2 T01920095

More Conditions Fewer Conditions

Pressure 30.04 in
Visibility 10.0 miles
Clouds Scattered Clouds 12000 ft
Dew Point 51 °F
Humidity 59%
Rainfall 0.00 in
Snow Depth Not available.
UV 3 out of 12
Pollen 8.60 out of 12
Air Quality Not available.
Flu Activity Regional
METAR KVLL 041315Z AUTO 20006KT 10SM SCT120 19/10 A3004 RMK AO2 T01920095

More Conditions Fewer Conditions

Nepal has a long way to go to dig out and rebuild from a devastating earthquake. We have teamed up with several charities and organizations to make contributing to the relief effort as easy as possible.
How you can help: Portlight Strategies | Red Cross

10-Day Weather Forecast

Almanac

Astronomy

May. 04, 2015 Rise Set
Actual Time
Civil Twilight
Nautical Twilight
Astronomical Twilight
Moon
Length of Visible Light
Length of Day
Tomorrow will be .
, % of the Moon is Illuminated

Today's Extremes

State Highs State Lows

Community

WunderPhotos

Upload Photos

1,818,607 photos uploaded!

WunderBlogs® & News

Nearby

Air Quality

  Air Quality AQ Index Pollutant
Not available.

Snow Depth

Station Depth Elevation

Earthquake Activity

City Distance Mag. Time & Date
Minimum magnitude displayed is 2.5.

Coastal Water Temperatures

Place Temperature

Stations

Nearby Weather Stations

Station Location Temp. Windchill Dew Point Humidity Wind Precip. Elev Updated Type